Other Public Products
Issued by NWS Grand Forks, ND

Home | Current Version | Previous Version | Graphics & Text | Print | Product List | Glossary On
Versions: 1 2 3 4 5 6 7 8 9 10 11 12 13 14 15 16 17 18 19 20 21 22 23 24 25 26 27 28 29 30 31 32 33 34 35 36 37 38 39 40 41 42 43 44 45 46 47 48 49 50
000
FPUS83 KFGF 111110
OPUFGF
PRAIRIE TO PINES WEATHER ROUNDUP
NATIONAL WEATHER SERVICE EASTERN NORTH DAKOTA/GRAND FORKS ND
500 AM CST THU FEB 11 2016

 **SATELLITE DATA USED TO AUGMENT SKY COVER AT AUTOMATED STATIONS**
 *****  WEATHER ACROSS EASTERN NORTH DAKOTA  *****

CITY           SKY/WX    TMP DP  RH WIND       PRES   REMARKS
GRAND FORKS    CLOUDY     3  -2  79 CALM      30.29S
GRAND FORKS AF CLOUDY     3  -2  79 S3        30.28S
GRAND CITY NWS NOT AVBL
BUXTON         NOT AVBL
DEVILS LAKE    FLURRIES   4   1  88 S6        30.20F WCI  -7
FARGO          CLOUDY     2  -4  76 CALM      30.29S
WAHPETON ARPT  CLOUDY     0  -6  78 CALM      30.28F
$$

 *****  WEATHER ACROSS CENTRAL AND WESTERN NORTH DAKOTA  *****

CITY           SKY/WX    TMP DP  RH WIND       PRES   REMARKS
JAMESTOWN      CLOUDY     6   1  80 SE7       30.19F WCI  -6
BISMARCK       CLOUDY    19  12  74 SE7       30.15F WCI  10
MINOT          CLOUDY    15   6  67 NE6       30.14F WCI   6
MINOT AFB      CLOUDY    12   9  89 E6        30.13F WCI   2
GARRISON         N/A     15  11  83 E5        30.10F WCI   8
WILLISTON      LGT SNOW  26  23  88 CALM      30.07S FOG
DICKINSON      CLOUDY    25  22  88 SE7       30.00F FOG     WCI  17
HETTINGER      LGT SNOW  29  27  92 S7        30.04F FOG     WCI  22
$$

 *****  OTHER OBSERVATIONS NORTHEAST NORTH DAKOTA  *****

CITY           SKY/WX    TMP DP  RH WIND       PRES   REMARKS
WALHALLA       FAIR       1   1 100 CALM      30.25F
LANGDON        CLOUDY     5   0  78 SW8       30.18F WCI  -8
CAVALIER       CLOUDY     1   0  92 SE3       30.26F
GRAFTON        CLOUDY     1   0  92 SE5       30.30F WCI  -8
CANDO          NOT AVBL
FORT TOTTEN      N/A      4   0  83 S3        29.95S
ROLLA          FLURRIES   7   3  85 CALM      30.17S
RUGBY          PTSUNNY    9   7  92 CALM      30.18S
 ***** THE ABOVE OBSERVATIONS ARE NON NWS ARE NOT QUALITY
        CONTROLLED AND MAY MIS-REPORT RAIN FOR SNOW...
$$

 *****  OTHER OBSERVATIONS SOUTHEAST NORTH DAKOTA *****

CITY           SKY/WX    TMP DP  RH WIND       PRES   REMARKS
COOPERSTOWN    NOT AVBL
VALLEY CITY    CLOUDY     0  -2  92 CALM      30.24F
OAKES          CLOUDY     7   3  85 SE6       30.23S WCI  -3
GWINNER        CLOUDY     9   3  78 CALM      30.25S
SHEYENNE NWR     N/A     -8 -14  74 CALM      29.95S
BUFFALO        NOT AVBL
WYNDMERE         N/A     -9 -15  77 SW2         N/A
 ***** THE ABOVE OBSERVATIONS ARE NON NWS ARE NOT QUALITY
       CONTROLLED AND MAY MIS-REPORT RAIN FOR SNOW...
$$

  *****  WEATHER ACROSS NORTHERN MINNESOTA  *****

CITY           SKY/WX    TMP DP  RH WIND       PRES   REMARKS
FLAG ISLAND    CLOUDY    -6 -11  77 CALM      30.23S
WARROAD        CLOUDY    -9 -15  77 SW3       30.24F
ROSEAU         CLOUDY   -17 -22  76 S5        30.25F WCI -29
HALLOCK        CLOUDY    -6 -11  77 CALM      30.28S
THF RVR FALLS  PTCLDY    -9 -24  49 CALM      30.27S
HALSTAD        NOT AVBL
FOSSTON        PTCLDY   -17 -24  70 CALM      30.25S
BAUDETTE       CLOUDY   -13 -20  71 CALM      30.23S
WASKISH        CLOUDY   -18 -24  76 CALM      30.24F
CROOKSTON      PTCLDY    -2  -8  78 CALM      30.30S
$$
  *****  WEATHER ACROSS CENTRAL AND WEST MINNESOTA  *****

CITY           SKY/WX    TMP DP  RH WIND       PRES   REMARKS
BEMIDJI        PTCLDY   -19 -24  77 CALM      30.24S
PARK RAPIDS    PTCLDY   -14 -20  74 CALM      30.22F
WADENA         CLOUDY    -6  -9  84 CALM      30.24R
DETROIT LAKES  CLOUDY    -4  -6  92 CALM      30.25R
MOORHEAD       PTCLDY     1  -2  85 CALM      30.30R
FERGUS FALLS   CLOUDY     1  -2  85 CALM      30.30S
ELBOW LAKE     FAIR       2   0  88 CALM      30.26S
MORRIS MN      CLOUDY     0  -6  78 CALM      30.26S
STAPLES        CLOUDY    -9 -11  92 CALM      30.25R
WHEATON        CLOUDY     1  -2  85 CALM      30.30S
$$
  *****  WEATHER ELSEWHERE ACROSS MINNESOTA  *****

CITY           SKY/WX    TMP DP  RH WIND       PRES   REMARKS
DULUTH         CLOUDY   -10 -15  78 NW7       30.20F WCI -25
INTRNTL FALLS  CLOUDY   -10 -15  78 SW3       30.24R
ELY            CLOUDY   -20 -26  76 CALM      30.19F
CLOQUET        CLOUDY   -11 -17  77 NW6       30.23R WCI -25
BRAINERD       PTCLDY   -15 -20  78 CALM      30.26S
HIBBING        CLOUDY   -22 -27  77 CALM      30.22S
ALEXANDRIA     CLOUDY     0  -7  72 SW3       30.25R
SAINT CLOUD    CLOUDY    -2  -7  79 CALM      30.29R
MINNEAPOLIS    CLOUDY     3  -4  72 N3        30.31R
$$

  *****  WEATHER ACROSS SOUTH DAKOTA  *****

CITY           SKY/WX    TMP DP  RH WIND       PRES   REMARKS
SIOUX FALLS    CLOUDY    13   5  70 E5        30.25S WCI   5
BROOKINGS      CLOUDY    11   6  81 SE5       30.22F WCI   3
WATERTOWN      CLOUDY    11   5  77 S6        30.20F WCI   1
HURON          CLOUDY    16  11  80 S6        30.24S WCI   7
SISSETON         N/A      5   2  87 W3        30.26S
ABERDEEN       CLOUDY    15   9  76 CALM      30.23F
MITCHELL       CLOUDY    18  13  80 SE8       30.24F WCI   8
PIERRE         CLOUDY    21  19  92 SE7       30.15F WCI  12
MOBRIDGE       CLOUDY    19  15  84 SE8       30.11F WCI   9
RAPID CITY     CLOUDY    28  27  96 SE9       30.01F FOG     WCI  19
$$

  *****  SOME WEATHER IN NEARBY STATES *****

CITY           SKY/WX    TMP DP  RH WIND       PRES   REMARKS
GLASGOW MT     CLOUDY    29  25  85 E13       29.99S WCI  19
GREAT FALLS MT CLOUDY    38  27  64 SW14      30.08S
CHEYENNE WY    CLOUDY    42  15  33 W22G33    30.12F
SCOTTSBLUFF NE CLOUDY    31  24  75 N6        30.09S
OMAHA NE       PTCLDY    15   6  67 N6        30.28R WCI   6
DES MOINES IA  CLOUDY     8  -2  63 NE7       30.29R WCI  -3
DAVENPORT IA   CLEAR      7   1  76 N5        30.28R WCI  -2
CHICAGO IL     CLEAR      8  -2  63 N12       30.23R WCI  -7
EAU CLAIRE WI  PTCLDY    -7 -13  75 CALM      30.28R
LA CROSSE WI   PTCLDY    -3  -8  79 N3        30.31R
$$

  *****  SOME NATIONAL WEATHER *****

CITY           SKY/WX    TMP DP  RH WIND       PRES   REMARKS
LA GUARDIA NY  MOCLDY    25   4  40 NW22G29   29.83R WCI  10
RALEIGH NC     PTCLDY    21   5  50 CALM      30.15R
ATLANTA GA     CLEAR     28  14  55 CALM      30.15R
NEW ORLEANS LA CLEAR     46  40  79 S7        30.20S
OKLAHOMA CITY  CLOUDY    43  32  65 N10       30.07R
ALBUQUERQUE NM CLOUDY    40  22  48 NE9       30.31S
SALT LAKE CITY CLOUDY    29  27  92 CALM      30.45S FOG
LOS ANGELES CA PTCLDY    62  35  36 NE3       30.08S
BOISE ID       PTCLDY    31  29  92 CALM      30.40F FOG
SEATTLE WA     CLOUDY    48  45  89 NE7       30.23F
$$

*** WEATHER ACROSS MANITOBA...SASKATCHEWAN AND ONTARIO ***
                ***ONTARIO***

CITY           SKY/WX    TMP DP  RH WIND       PRES   REMARKS
GERALDTON      CLEAR    -20 -26  76 W5        30.07S WCI -33
THUNDER BAY    PTCLDY   -18 -24  76 SW3       30.23R
SIOUX LOOKOUT  FLURRIES -11 -15  84 SW3       30.15S
TORONTO        PTCLDY     5  -4  66 N10       29.92R WCI -10
BIG TROUT LK   CLEAR    -20 -26  76 W9        30.00F WCI -40
PICKLE LAKE    CRYSTALS -15 -20  76 W10       30.04  WCI -35
DRYDEN         CLOUDY    -8 -11  84 W3        30.16S
KENORA         CLOUDY    -4  -9  77 W3        30.18F
$$
                *** MANITOBA***

CITY           SKY/WX    TMP DP  RH WIND       PRES   REMARKS
BRANDON        FLURRIES   5   1  85 W6        30.20S WCI  -6
DAUPHIN        FLURRIES   7   3  85 NE8       30.25R WCI  -6
ISLAND LAKE    CLEAR    -20 -26  76 W7        30.13  WCI -37
PILOT MOUND      N/A      3   1  92 SW7         N/A  WCI  -9
THE PAS        CLEAR    -11 -17  77 NW8       30.28F WCI -28
THOMPSON       CLEAR    -20 -26  76 NW8       30.18S WCI -39
WINNIPEG       MOCLDY     0  -6  78 S7        30.27S WCI -13
LYNN LAKE      CLEAR    -20 -26  76 W10       30.20F WCI -41
CHURCHILL      CRYSTALS -24 -31  69 N26G35    30.09R BLWGSNOWWCI -57
GILLAM         CLEAR    -24 -31  69 W10       30.11F WCI -46
$$
                ***SASKATCHEWAN***

CITY           SKY/WX    TMP DP  RH WIND       PRES   REMARKS
ESTEVAN        FLURRIES  14  10  85 E9        30.10F WCI   2
KINDERSLEY     LGT SNOW  18  16  93 E16       30.07S WCI   3
LLOYDMINSTER   FLURRIES  12   9  85 E10       30.13S WCI  -1
PRINCE ALBERT  FLURRIES   5   1  85 SE2       30.25S
REGINA         FLURRIES  14  10  85 E7        30.12F WCI   4
YORKTON        FLURRIES   7   3  85 N8        30.18R WCC1F1C2F2C3F3C4F4C5F5C6F6C7F7C8F8C9F9CaFaCbFbCcFcCdFdCe!


USA.gov is the U.S. government's official web portal to all federal, state and local government web resources and services.